Shawano, WI

2:54 AM CST on January 18, 2017 (GMT -0600)
Shawano

Weather History for KEZS - April, 2013

Change the Weather History Date:

Monday, April 8, 2013

  Actual Average (KCLI) Record (KCLI)
Temperature  
Mean Temperature 35 °F -  
Max Temperature 37 °F 52 °F 82 °F (1991)
Min Temperature 33 °F 28 °F 12 °F (1972)
Degree Days  
Heating Degree Days 30    
Moisture  
Dew Point 33 °F    
Average Humidity 91    
Maximum Humidity 100    
Minimum Humidity 81    
Precipitation  
Precipitation 0.06 in - - ()
Sea Level Pressure  
Sea Level Pressure 29.87 in    
Wind  
Wind Speed 5 mph (NE)    
Max Wind Speed 9 mph    
Max Gust Speed -    
Visibility 9 miles    
Events Rain    
Averages and records for this station are not official NWS values.
T = Trace of Precipitation, MM = Missing Value Source: NWS Daily Summary

Daily Weather History Graph

Daily Weather History Graph

Search for Another Location

Airport or City:

Trip Planner

Search our weather history database for the weather conditions in past years. The results will help you decide how hot, cold, wet, or windy it might be!

Date:

Astronomy

Apr. 08, 2013 Rise Set
Actual Time 6:21 AM CDT 7:30 PM CDT
Civil Twilight 5:51 AM CDT 8:01 PM CDT
Nautical Twilight 5:15 AM CDT 8:37 PM CDT
Astronomical Twilight 4:37 AM CDT 9:15 PM CDT
Moon 5:15 AM CDT (4/8) 6:02 PM CDT (4/8)
Length of Visible Light 14h 09m
Length of Day
13h 09m
Waning Crescent, 3% of the Moon is Illuminated
Apr 8
Waning Crescent
Apr 10
New
Apr 18
First Quarter
Apr 25
Full
May 2
Last Quarter

Hourly Weather History & Observations

Time (CDT) Temp. Windchill Dew Point Humidity Pressure Visibility Wind Dir Wind Speed Gust Speed Precip Events Conditions
12:15 AM 35.6 °F 29.9 °F 32.0 °F 87% 29.92 in 10.0 mi SSE 6.9 mph - N/A   Clear
12:35 AM 35.6 °F 29.9 °F 32.0 °F 87% 29.92 in 10.0 mi South 6.9 mph - N/A   Clear
12:55 AM 35.6 °F 29.9 °F 30.2 °F 81% 29.92 in 10.0 mi SSE 6.9 mph - N/A   Clear
1:15 AM 35.6 °F 31.7 °F 30.2 °F 81% 29.91 in 10.0 mi SSE 4.6 mph - N/A   Clear
1:35 AM 35.6 °F 31.7 °F 30.2 °F 81% 29.90 in 10.0 mi SSE 4.6 mph - N/A   Clear
1:55 AM 35.6 °F 31.7 °F 30.2 °F 81% 29.90 in 10.0 mi SSE 4.6 mph - N/A   Clear
2:15 AM 35.6 °F 32.8 °F 30.2 °F 81% 29.89 in 10.0 mi SSE 3.5 mph - N/A   Clear
2:55 AM 35.6 °F - 30.2 °F 81% 29.88 in 10.0 mi Calm Calm - N/A   Scattered Clouds
3:15 AM 35.6 °F 32.8 °F 30.2 °F 81% 29.89 in 10.0 mi SSE 3.5 mph - N/A   Mostly Cloudy
3:35 AM 35.6 °F 31.7 °F 30.2 °F 81% 29.88 in 10.0 mi East 4.6 mph - N/A   Mostly Cloudy
3:55 AM 33.8 °F 30.8 °F 32.0 °F 93% 29.88 in 10.0 mi NE 3.5 mph - N/A   Scattered Clouds
4:15 AM 33.8 °F 28.6 °F 32.0 °F 93% 29.87 in 10.0 mi NNE 5.8 mph - N/A   Mostly Cloudy
4:35 AM 33.8 °F 28.6 °F 32.0 °F 93% 29.86 in 10.0 mi ENE 5.8 mph - N/A   Overcast
4:55 AM 33.8 °F 27.7 °F 32.0 °F 93% 29.86 in 10.0 mi ENE 6.9 mph - N/A   Overcast
5:15 AM 33.8 °F 27.7 °F 32.0 °F 93% 29.84 in 10.0 mi ENE 6.9 mph - N/A   Light Drizzle
5:35 AM 33.8 °F 29.6 °F 32.0 °F 93% 29.84 in 10.0 mi ENE 4.6 mph - N/A   Overcast
5:55 AM 33.8 °F 28.6 °F 32.0 °F 93% 29.83 in 10.0 mi ENE 5.8 mph - N/A   Overcast
6:15 AM 35.6 °F 30.7 °F 32.0 °F 87% 29.83 in 10.0 mi ENE 5.8 mph - N/A   Overcast
6:35 AM 33.8 °F 29.6 °F 32.0 °F 93% 29.84 in 10.0 mi ENE 4.6 mph - N/A   Light Drizzle
6:55 AM 33.8 °F 27.7 °F 32.0 °F 93% 29.83 in 10.0 mi NE 6.9 mph - N/A   Mostly Cloudy
7:15 AM 35.6 °F 29.2 °F 32.0 °F 87% 29.83 in 10.0 mi NE 8.1 mph - N/A   Light Drizzle
7:35 AM 35.6 °F 29.2 °F 32.0 °F 87% 29.83 in 10.0 mi NE 8.1 mph - N/A Rain Light Rain
8:15 AM 35.6 °F 30.7 °F 32.0 °F 87% 29.81 in 10.0 mi NE 5.8 mph - N/A   Mostly Cloudy
8:35 AM 35.6 °F 29.2 °F 32.0 °F 87% 29.80 in 10.0 mi NE 8.1 mph - N/A   Overcast
9:15 AM 35.6 °F 28.6 °F 32.0 °F 87% 29.79 in 10.0 mi ENE 9.2 mph - N/A   Overcast
9:55 AM 35.6 °F 29.2 °F 32.0 °F 87% 29.81 in 10.0 mi ENE 8.1 mph - N/A   Overcast
10:15 AM 35.6 °F 29.2 °F 33.8 °F 93% 29.80 in 7.0 mi ENE 8.1 mph - N/A   Drizzle
10:35 AM 35.6 °F 29.9 °F 33.8 °F 93% 29.80 in 5.0 mi ENE 6.9 mph - N/A   Drizzle
10:55 AM 35.6 °F 29.2 °F 33.8 °F 93% 29.79 in 5.0 mi NE 8.1 mph - N/A Rain Light Rain
11:15 AM 35.6 °F 29.9 °F 33.8 °F 93% 29.79 in 7.0 mi ENE 6.9 mph - 0.02 in Rain Rain
11:35 AM 35.6 °F 29.2 °F 33.8 °F 93% 29.79 in 7.0 mi ENE 8.1 mph - 0.02 in   Drizzle
11:55 AM 35.6 °F 29.2 °F 33.8 °F 93% 29.78 in 10.0 mi NE 8.1 mph - 0.02 in   Drizzle
12:15 PM 35.6 °F 29.9 °F 33.8 °F 93% 29.78 in 10.0 mi NE 6.9 mph - N/A   Drizzle
12:35 PM 35.6 °F 29.2 °F 33.8 °F 93% 29.78 in 10.0 mi NE 8.1 mph - N/A   Light Drizzle
12:55 PM 35.6 °F 30.7 °F 33.8 °F 93% 29.79 in 7.0 mi NE 5.8 mph - N/A Rain Light Rain
1:15 PM 35.6 °F 29.9 °F 33.8 °F 93% 29.79 in 5.0 mi NE 6.9 mph - 0.02 in Rain Rain
1:35 PM 37.4 °F 31.4 °F 33.8 °F 87% 29.79 in 7.0 mi ENE 8.1 mph - 0.04 in   Drizzle
1:55 PM 35.6 °F 29.9 °F 33.8 °F 93% 29.80 in 10.0 mi ENE 6.9 mph - 0.04 in   Light Drizzle
2:15 PM 35.6 °F 32.8 °F 33.8 °F 93% 29.81 in 7.0 mi NE 3.5 mph - N/A   Light Drizzle
2:35 PM 37.4 °F 33.8 °F 35.6 °F 93% 29.82 in 10.0 mi NE 4.6 mph - N/A   Drizzle
2:55 PM 37.4 °F 33.8 °F 35.6 °F 93% 29.82 in 7.0 mi NE 4.6 mph - N/A   Drizzle
3:15 PM 37.4 °F 32.8 °F 35.6 °F 93% 29.82 in 7.0 mi NE 5.8 mph - N/A   Light Drizzle
3:35 PM 37.4 °F 32.8 °F 35.6 °F 93% 29.82 in 5.0 mi NNE 5.8 mph - N/A   Overcast
3:55 PM 37.4 °F 32.8 °F 35.6 °F 93% 29.83 in 3.0 mi NNE 5.8 mph - N/A   Overcast
4:15 PM 37.4 °F 34.9 °F 35.6 °F 93% 29.84 in 5.0 mi ENE 3.5 mph - N/A   Overcast
4:35 PM 37.4 °F 33.8 °F 35.6 °F 93% 29.85 in 7.0 mi North 4.6 mph - N/A   Overcast
4:55 PM 37.4 °F 33.8 °F 35.6 °F 93% 29.86 in 10.0 mi North 4.6 mph - N/A   Overcast
5:15 PM 37.4 °F 34.9 °F 35.6 °F 93% 29.87 in 10.0 mi NNE 3.5 mph - N/A   Overcast
5:35 PM 37.4 °F 34.9 °F 35.6 °F 93% 29.87 in 10.0 mi NE 3.5 mph - N/A   Overcast
5:55 PM 37.4 °F 33.8 °F 35.6 °F 93% 29.88 in 10.0 mi NE 4.6 mph - N/A   Overcast
6:15 PM 37.4 °F 33.8 °F 35.6 °F 93% 29.89 in 10.0 mi NE 4.6 mph - N/A   Overcast
6:35 PM 37.4 °F - 35.6 °F 93% 29.90 in 10.0 mi Calm Calm - N/A   Overcast
6:55 PM 37.4 °F 33.8 °F 33.8 °F 87% 29.92 in 10.0 mi NNE 4.6 mph - N/A   Overcast
7:15 PM 37.4 °F 34.9 °F 33.8 °F 87% 29.93 in 10.0 mi NNE 3.5 mph - N/A   Overcast
7:35 PM 35.6 °F - 33.8 °F 93% 29.95 in 10.0 mi Calm Calm - N/A   Overcast
7:55 PM 35.6 °F 29.9 °F 33.8 °F 93% 29.95 in 10.0 mi NNE 6.9 mph - N/A   Overcast
8:15 PM 35.6 °F 30.7 °F 33.8 °F 93% 29.95 in 10.0 mi NNE 5.8 mph - N/A   Overcast
8:35 PM 35.6 °F 32.8 °F 33.8 °F 93% 29.97 in 10.0 mi North 3.5 mph - N/A   Overcast
8:55 PM 37.4 °F 34.9 °F 35.6 °F 93% 29.98 in 10.0 mi North 3.5 mph - N/A   Overcast
9:15 PM 37.4 °F - 35.6 °F 93% 29.99 in 10.0 mi Calm Calm - N/A   Overcast
9:35 PM 37.4 °F - 33.8 °F 87% 30.02 in 10.0 mi Calm Calm - N/A   Overcast
9:55 PM 37.4 °F - 35.6 °F 93% 30.02 in 10.0 mi Calm Calm - N/A   Overcast
10:15 PM 35.6 °F - 35.6 °F 100% 30.01 in 10.0 mi Calm Calm - N/A   Overcast
10:35 PM 35.6 °F - 33.8 °F 93% 30.02 in 10.0 mi Calm Calm - N/A   Overcast
10:55 PM 35.6 °F 30.7 °F 33.8 °F 93% 30.01 in 7.0 mi NNE 5.8 mph - N/A   Overcast
11:15 PM 35.6 °F 31.7 °F 33.8 °F 93% 30.01 in 10.0 mi NNE 4.6 mph - N/A   Mostly Cloudy
11:35 PM 35.6 °F 32.8 °F 33.8 °F 93% 30.02 in 10.0 mi NNE 3.5 mph - N/A   Overcast